Dewpoint
39 43 60 65 66 67 66 66 66 66 65 64 63 62 61 56 51 51 54 59 61 63 62 62 62 63 64 62 61 61 61 62 62 62 62 62 62 62 62 62 61 62 62
39 39 39 40 58 66 66 66 66 65 65 65 64 63 62 61 59 53 50 57 60 61 63 62 62 63 64 64 62 62 61 61 61 62 62 62 63 63 63 63 63 64 64
39 40 41 41 41 41 60 65 65 65 65 65 64 64 64 62 61 59 54 50 58 60 62 62 62 63 63 63 64 64 64 64 63 62 62 63 64 64 64 64 64 64 64
39 40 41 42 42 42 42 51 63 63 64 64 63 64 65 64 64 63 63 56 53 58 60 61 63 63 63 64 63 63 64 64 64 65 64 63 64 65 65 64 64 64 64
42 41 42 42 42 41 43 43 43 57 60 61 62 64 64 64 64 65 64 63 61 53 56 58 60 62 63 64 63 62 63 64 64 65 65 65 65 65 65 65 64 64 64
44 44 44 43 43 43 42 42 42 42 43 52 60 60 62 64 64 64 64 64 64 63 58 57 58 60 61 62 62 61 61 64 65 65 65 65 65 65 65 65 64 64 64
46 46 46 45 44 43 42 42 41 41 42 43 47 56 59 60 61 63 64 64 64 63 62 59 60 60 60 60 61 62 61 62 64 65 65 65 65 65 65 65 64 64 64
46 45 46 46 46 46 45 43 42 42 42 43 41 44 47 53 59 61 63 63 64 64 63 61 60 61 61 60 59 60 61 62 62 63 65 65 65 65 65 65 65 65 65
46 46 46 47 47 47 47 46 46 45 45 45 44 42 47 47 52 58 61 62 62 63 63 63 62 62 62 61 60 60 61 62 63 63 63 63 65 65 65 65 65 65 65
46 46 47 48 48 48 47 47 47 47 47 45 46 46 46 47 47 49 54 58 61 61 62 62 62 62 62 62 61 61 60 60 61 61 62 62 63 63 64 65 65 65 65
46 47 48 49 50 50 50 50 49 48 48 48 47 46 47 47 46 47 49 51 53 58 61 61 62 61 61 61 61 61 61 61 62 62 62 62 62 63 62 63 64 64 65
46 47 48 49 50 49 48 47 47 47 47 48 49 47 46 46 46 49 50 51 53 53 54 55 59 61 62 62 61 61 61 61 62 63 62 62 63 63 63 63 63 64 64
46 47 48 48 49 49 48 48 47 47 47 48 48 49 47 46 46 47 47 48 49 52 53 54 55 56 57 58 59 59 58 58 59 60 61 60 61 61 62 63 63 63 63
48 48 49 48 48 47 48 47 47 47 48 49 49 50 49 47 46 47 46 46 45 46 47 49 53 54 55 56 58 58 58 58 58 59 60 60 61 60 60 61 62 62 61
49 49 49 47 47 46 47 47 47 47 47 48 48 48 48 48 48 47 47 48 47 45 46 47 47 49 49 51 54 56 57 58 58 58 58 59 59 59 59 59 59 60 60
48 49 49 49 47 46 45 47 47 47 47 46 47 46 47 48 48 49 49 50 50 49 47 49 49 49 49 48 49 50 52 53 53 54 55 55 56 57 57 57 58 58 58
47 48 48 48 48 47 46 45 45 45 46 45 45 45 45 45 47 48 48 49 49 50 48 49 50 50 48 46 46 46 49 49 50 51 52 54 55 55 56 57 57 57 57
45 46 47 47 47 47 46 46 46 47 46 46 47 48 47 48 48 48 48 48 47 47 46 45 47 46 46 46 49 49 49 49 48 50 52 51 53 52 52 53 53 54 55
45 45 45 45 45 46 46 45 44 45 46 47 47 47 47 48 48 48 48 48 48 49 49 47 46 48 48 48 47 48 49 49 50 48 48 49 49 48 49 48 48 49 49
43 44 44 44 45 45 44 43 43 44 45 45 46 46 46 46 46 45 45 46 46 46 46 46 46 45 46 47 47 46 44 45 45 45 44 45 45 45 46 45 44 44 44
42 43 43 43 44 44 44 44 44 44 45 45 45 45 45 46 46 47 47 46 46 45 45 45 45 44 45 44 42 42 42 42 43 40 40 43 42 43 43 43 44 43 43
42 43 42 42 42 43 43 44 44 45 45 45 44 45 44 44 45 47 45 44 43 42 43 44 44 42 41 39 39 39 40 40 39 38 37 41 41 41 43 42 43 42 42
42 41 41 41 40 41 41 42 43 44 43 41 41 42 42 42 42 44 43 41 41 41 40 40 40 38 37 36 36 36 38 37 37 38 35 38 38 38 40 40 40 39 38
40 40 40 40 40 40 40 40 41 42 41 41 39 39 39 39 40 42 41 39 38 38 38 37 37 36 36 35 34 34 34 34 34 35 33 33 35 34 36 39 38 38 37
38 39 39 38 37 37 38 37 39 41 41 40 39 38 37 37 37 39 40 38 38 37 37 36 35 34 33 31 31 30 28 28 28 31 31 28 31 30 31 34 36 34 34
37 38 37 36 36 35 34 37 36 39 38 37 38 37 34 34 34 35 36 35 35 35 35 34 32 31 30 30 30 29 27 25 26 27 30 27 27 28 26 33 33 32 32
Wind_Speed
11 12 11 12 12 13 12 14 15 14 15 17 17 16 14 13 15 13 9 20 20 19 18 17 17 17 18 16 15 14 14 14 13 13 13 14 14 14 14 14 13 13 14
8 11 15 14 11 12 13 14 15 14 15 13 16 16 16 14 12 13 12 16 22 21 20 20 20 19 18 19 19 17 17 16 15 15 15 17 17 16 17 17 17 16 16
12 10 11 13 15 15 14 13 14 14 14 14 15 15 13 13 13 13 15 13 18 22 21 20 21 21 20 19 19 20 20 19 19 19 19 20 19 18 19 19 19 18 17
14 13 12 12 14 15 15 12 12 13 12 12 15 14 14 14 17 15 10 11 13 15 20 21 21 21 21 21 20 20 19 19 20 21 21 21 21 20 20 19 19 18 17
14 14 13 13 14 14 14 13 12 11 14 14 15 15 15 14 14 14 15 16 11 14 15 20 24 24 24 23 24 24 23 20 19 20 22 22 21 21 20 18 17 17 16
15 16 14 15 16 15 15 15 17 17 18 16 15 15 15 14 15 15 14 14 17 15 12 13 17 19 25 24 24 26 26 24 22 22 21 21 21 21 20 19 18 18 18
14 14 13 14 15 16 15 16 15 17 15 13 14 13 14 18 20 17 16 16 16 18 17 17 15 14 13 18 23 23 22 25 26 25 25 23 23 23 22 22 21 20 20
10 12 14 14 14 14 16 16 17 15 15 13 15 13 13 9 13 18 18 18 19 14 14 16 13 13 13 14 19 22 23 25 28 26 25 25 25 25 25 25 24 23 23
15 12 13 13 13 14 14 15 16 16 16 12 14 13 7 10 5 9 14 14 16 11 11 12 15 17 19 17 19 17 18 18 18 20 26 26 29 28 27 27 26 26 25
15 11 14 13 13 13 14 14 14 14 13 15 13 16 17 11 10 9 4 5 13 13 14 14 16 18 18 17 18 20 21 22 22 27 26 27 26 28 30 29 28 28 27
14 10 11 11 10 10 12 12 12 13 13 14 13 14 15 15 15 15 16 13 9 10 15 16 15 16 16 17 17 18 23 26 25 25 27 29 28 29 30 30 30 30 29
14 15 15 11 11 12 13 12 12 13 13 16 15 19 16 12 11 12 14 14 14 12 16 12 12 15 15 16 17 19 21 22 24 25 25 29 31 30 30 31 30 31 29
14 14 14 13 12 13 13 10 12 13 13 14 15 19 15 14 13 14 14 12 14 8 8 8 11 10 11 13 15 18 18 18 19 20 22 23 24 26 28 30 32 30 29
16 16 16 12 13 13 10 8 10 12 12 12 14 14 15 13 13 13 13 11 15 12 10 11 8 13 14 14 15 17 14 17 18 18 19 21 22 23 25 27 28 28 29
14 15 16 15 13 12 8 9 11 13 12 12 13 13 13 12 13 16 16 15 12 12 10 10 8 9 8 7 4 1 2 6 10 14 19 22 23 25 25 26 26 27 28
13 14 15 15 14 13 11 9 11 13 13 13 12 13 12 12 14 15 15 16 13 12 12 3 9 8 12 12 11 7 9 11 14 18 20 22 24 25 26 26 26 26 26
12 12 12 14 15 15 15 13 11 10 10 12 13 14 15 14 14 12 10 8 8 8 10 8 6 8 7 10 12 9 8 10 11 15 17 16 18 20 20 21 23 26 27
12 10 10 11 12 12 14 15 16 16 16 15 15 12 7 7 8 8 6 5 4 6 4 8 6 8 9 7 8 11 11 11 13 12 14 16 14 14 14 14 14 16 20
9 9 9 10 9 10 10 11 12 13 14 14 13 14 14 15 14 14 13 10 9 8 7 6 9 5 4 10 14 10 9 10 10 15 14 14 15 15 15 16 17 15 15
8 8 8 9 8 9 7 10 12 12 11 9 9 8 8 8 9 11 11 12 11 12 11 12 11 11 10 10 9 8 12 9 15 9 9 11 10 12 14 14 19 19 22
7 7 7 7 7 7 7 9 9 10 10 9 8 7 6 6 8 8 7 8 8 7 8 9 9 8 5 6 7 9 7 14 5 9 9 7 9 8 9 10 11 15 16
6 5 6 6 7 5 10 10 8 7 6 6 6 7 7 7 8 3 7 12 10 5 5 4 4 4 5 6 7 8 8 7 6 7 12 5 6 6 7 8 12 13 16
7 8 7 6 6 6 7 10 8 5 4 4 4 6 5 7 9 6 6 7 10 9 8 4 3 4 3 6 7 7 5 5 6 9 9 6 6 5 5 7 11 12 14
8 9 9 8 8 8 4 5 9 4 2 2 4 6 5 6 8 9 3 5 6 7 7 7 7 5 4 5 5 6 8 9 11 5 11 5 7 8 8 3 7 11 13
10 11 10 10 10 10 5 5 7 7 5 3 1 1 3 4 6 9 3 1 2 2 3 4 4 4 4 6 8 5 7 7 3 2 7 5 6 11 8 4 5 10 12
12 11 13 12 12 13 10 8 5 7 8 7 7 3 3 4 4 5 5 3 5 1 1 4 0 1 5 5 7 7 4 3 4 3 7 9 7 7 7 3 4 5 8
Wind_Direction
306 316 286 258 260 274 272 259 253 237 227 229 237 244 258 238 226 228 219 196 200 198 205 221 229 234 223 228 235 243 247 249 254 257 260 264 267 270 272 274 278 276 281
287 298 306 308 297 261 261 267 269 262 260 240 237 241 241 249 253 230 229 204 206 209 206 215 227 232 236 234 235 237 236 241 247 253 254 257 258 261 265 268 269 269 272
297 289 288 293 296 295 282 263 266 264 267 266 256 251 247 244 238 236 227 218 206 213 214 219 225 233 238 241 246 245 240 237 235 235 239 244 248 251 256 264 271 272 272
299 294 286 283 281 286 293 293 272 272 267 258 261 253 257 258 248 249 260 240 199 202 216 223 226 226 231 238 244 251 255 244 245 243 242 245 247 248 251 255 263 266 261
319 322 311 294 292 291 289 290 291 281 273 268 259 250 248 249 251 255 250 242 257 215 205 217 223 228 226 227 232 244 249 250 249 245 243 245 246 248 248 252 258 262 261
327 326 323 316 309 293 284 274 271 272 272 275 270 267 263 256 251 240 239 242 230 235 233 217 215 226 231 232 238 241 240 241 245 251 250 247 246 246 247 242 244 249 252
310 309 310 308 306 306 297 282 278 278 278 276 282 274 263 259 251 247 242 237 229 233 217 215 204 204 213 235 249 246 248 252 249 242 247 251 252 252 249 248 245 241 245
337 337 327 318 314 309 309 302 295 288 269 269 268 282 281 277 249 240 232 232 226 226 216 223 219 226 231 236 241 244 248 254 257 254 252 252 252 254 256 255 253 247 241
311 300 298 294 297 296 290 291 297 297 295 281 264 251 277 250 284 240 238 236 240 229 224 222 229 237 241 242 240 240 241 246 242 255 272 267 258 254 253 254 252 251 251
288 275 279 275 275 272 275 281 284 289 293 284 281 270 272 280 293 299 309 258 231 215 217 215 220 227 231 237 241 243 247 250 255 257 257 258 261 262 260 257 254 252 251
291 296 285 283 293 302 298 298 298 294 292 290 287 275 271 279 265 253 275 284 279 234 220 218 216 223 225 231 237 238 245 249 251 251 256 258 261 262 260 260 260 254 251
303 299 285 271 272 280 287 294 297 297 295 289 281 277 276 262 276 274 260 265 265 269 268 264 217 217 219 220 227 232 239 243 244 255 263 267 267 268 267 266 266 264 262
311 300 303 294 274 257 254 274 288 284 282 282 278 269 264 275 283 283 290 291 287 287 280 279 268 267 260 233 230 231 241 243 250 254 261 273 276 279 276 273 272 271 268
295 291 298 296 305 303 259 263 278 279 280 282 280 267 264 273 284 287 276 275 285 292 299 295 292 262 254 248 238 233 228 243 254 261 271 275 275 275 279 281 280 278 275
316 319 313 310 307 307 285 268 274 280 279 286 289 281 272 263 264 268 276 279 274 280 281 288 301 327 351 15 21 23 249 260 264 266 269 273 276 275 273 274 274 276 276
309 323 320 333 320 313 308 274 271 272 274 277 274 279 278 272 268 261 262 265 267 265 274 270 292 299 313 310 302 292 288 288 289 282 281 281 275 272 274 276 277 276 273
321 318 337 333 341 351 346 331 315 292 278 283 285 269 269 274 278 276 283 281 278 275 279 286 280 299 325 328 324 327 329 330 328 321 314 326 317 305 292 287 288 285 279
323 326 335 338 346 351 347 353 351 351 351 341 341 0 335 318 330 307 311 315 335 338 331 303 297 301 300 327 9 352 339 333 325 333 21 19 20 27 5 348 335 316 299
312 330 337 336 342 343 344 358 349 338 337 341 352 353 349 357 1 5 5 2 351 346 335 310 299 339 346 334 336 332 328 349 11 356 7 21 12 15 23 29 24 19 20
321 329 329 330 339 335 10 358 344 333 330 330 328 328 328 336 348 344 336 334 334 331 326 325 319 317 313 318 337 359 332 345 340 3 357 27 16 16 37 30 37 35 35
321 322 322 325 329 336 7 342 332 318 317 317 327 331 328 352 356 327 314 319 324 312 306 303 299 309 329 7 3 348 322 326 319 20 352 8 2 17 38 25 26 35 35
288 294 308 322 330 340 356 347 343 320 345 13 11 14 26 31 9 44 80 71 58 13 340 342 348 338 13 17 358 345 339 347 327 38 3 319 20 19 7 23 19 30 27
283 288 284 286 296 299 328 341 340 336 3 9 9 14 15 35 16 7 99 76 59 50 55 20 46 37 40 16 339 326 328 314 291 342 353 306 11 332 12 21 24 35 22
263 272 273 270 275 277 254 322 331 314 327 359 45 21 19 31 19 8 51 58 63 53 48 60 73 75 66 27 352 296 296 307 294 67 19 288 359 318 328 314 5 358 358
263 268 271 274 279 286 280 313 323 304 289 291 135 55 358 6 358 343 347 56 115 92 77 71 87 83 73 42 24 18 20 358 332 337 38 332 331 316 307 312 350 353 354
259 265 270 268 269 271 275 253 280 286 283 279 281 195 97 32 357 350 336 319 265 233 347 347 120 91 85 52 46 47 23 358 326 306 24 348 333 347 321 314 332 354 358